Location: La Brionne
(46.1728°N, 1.7849°E)
Time: 22:32:42
(UTC+00:00)

Cosmos 2278 Rocket - Pass Details

Date: 16 June 2021
Orbit: 840 x 847 km, 71.0° (Epoch: 02 August)

Event Time Altitude Azimuth Distance (km) Brightness Sun altitude
Rises 22:06:23 0° 338° (NNW) 3,410 7.2 -16.3°
Reaches altitude 10° 22:09:02 10° 347° (NNW) 2,473 5.9 -16.5°
Maximum altitude 22:14:16 36° 53° (NE) 1,305 3.3 -16.9°
Enters shadow 22:18:06 17° 112° (ESE) 2,022 3.8 -17.1°
